Location: Nickerson Gardens
(33.9320°N, 118.2484°W)
Time: 22:55:07
(UTC+00:00)

Envisat - Pass Details

Date: 26 January 2021
Orbit: 764 x 766 km, 98.1° (Epoch: 06 March)

Event Time Altitude Azimuth Distance (km) Brightness Sun altitude
Rises 01:48:16 0° 198° (SSW) 3,217 6.8 -6.9°
Reaches altitude 10° 01:51:00 10° 212° (SSW) 2,295 6.3 -7.4°
Maximum altitude 01:54:59 23° 265° (W) 1,575 5.8 -8.2°
Drops below altitude 10° 01:59:00 10° 317° (NW) 2,307 5.8 -9.0°
Sets 02:01:46 0° 332° (NNW) 3,237 6.4 -9.6°
